Location: Edoum�
(0.9447°N, 10.6482°E)
Time: 14:14:31
(UTC+00:00)

Sich 1 - Pass Details

Date: 07 June 2020
Orbit: 595 x 625 km, 82.5° (Epoch: 07 July)

Event Time Altitude Azimuth Distance (km) Brightness Sun altitude
Exits shadow 03:27:25 58° 148° (SSE) 712 3.3 -24.5°
Maximum altitude 03:28:06 70° 94° (E) 647 3.2 -24.4°
Drops below altitude 10° 03:32:23 10° 10° (N) 1,944 6.0 -23.4°
Sets 03:34:35 0° 8° (N) 2,839 6.9 -22.9°
